User: anonymous   Login
Location: Unspecified
(0.0000°N, 0.0000°E)
Time: 19:07:55
(UTC+00:00)
Language:

TOMSK-TPU 120 - Orbit

View from above orbital plane
View from above orbital plane
View from above satellite
View from above satellite

Ground track
Ground track

The orbit data is extracted from the following two-line orbital elements,

1 42910U 98067MZ  19077.86744618 +.00042969 +00000-0 +27469-3 0  9995
2 42910 051.6359 045.0244 0003556 131.0100 317.5535 15.75883568090511
Epoch (UTC): 18 March 2019 20:49:07
Eccentricity: 0.0003556
inclination: 51.6359°
perigee height: 340 km
apogee height: 344 km
right ascension of ascending node: 45.0244°
argument of perigee: 131.0100°
revolutions per day: 15.75883568
mean anomaly at epoch: 317.5535°
orbit number at epoch: 9051

The dashed part of the orbit path shows where the satellite is in the earth's shadow,  

DLR